Location: ?????
(42.2640°N, 43.4211°E)
Time: 14:37:55
(UTC+00:00)

Cosmos 1602 Rocket - Pass Details

Date: 07 August 2020
Orbit: 603 x 634 km, 82.5° (Epoch: 20 September)

Event Time Altitude Azimuth Distance (km) Brightness Sun altitude
Rises 00:59:34 0° 345° (NNW) 2,894 7.3 -11.5°
Reaches altitude 10° 01:01:53 10° 339° (NNW) 1,979 6.3 -11.1°
Maximum altitude 01:06:02 44° 268° (W) 847 3.9 -10.5°
Drops below altitude 10° 01:10:08 10° 196° (SSW) 1,949 5.7 -9.9°
Enters shadow 01:11:44 - 191° (S) 2,581 6.3 -9.6°
